Weather History for Fort Yukon, AK

Change the Weather History Date:

Sunday, May 26, 2013

  Actual Average Record
Temperature  
Mean Temperature 62 °F -  
Max Temperature 75 °F 58 °F 78 °F (2011)
Min Temperature 48 °F 38 °F 35 °F (1997)
Degree Days  
Heating Degree Days 4    
Growing Degree Days 12 (Base 50)    
Moisture  
Dew Point 31 °F    
Average Humidity 30    
Maximum Humidity 50    
Minimum Humidity 11    
Precipitation  
Precipitation 0.00 in - - ()
Sea Level Pressure  
Sea Level Pressure 29.88 in    
Wind  
Wind Speed 7 mph (NE)    
Max Wind Speed 13 mph    
Max Gust Speed 17 mph    
Visibility 10 miles    
Events      
Averages and records for this station are not official NWS values.
T = Trace of Precipitation, MM = Missing Value Source: NWS Daily Summary

Daily Weather History Graph

Daily Weather History Graph

Search for Another Location

Airport:

Trip Planner

Search our weather history database for the weather conditions in past years. The results will help you decide how hot, cold, wet, or windy it might be!

Date:

Astronomy

May. 26, 2013 Rise Set
Actual Time 3:01 AM AKDT 12:18 AM AKDT
Civil Twilight Sun does not rise Sun does not rise
Nautical Twilight Sun does not rise Sun does not rise
Astronomical Twilight Sun does not rise Sun does not rise
Moon 12:46 AM AKDT (5/26) 5:07 AM AKDT (5/26)
Length of Visible Light 24h 00m
Length of Day
21h 17m
Waning Gibbous, 96% of the Moon is Illuminated
May 26
Waning Gibbous
May 31
Last Quarter
Jun 8
New
Jun 16
First Quarter
Jun 23
Full

Hourly Weather History & Observations

Time (AKDT) Temp. Dew Point Humidity Pressure Visibility Wind Dir Wind Speed Gust Speed Precip Events Conditions
12:16 AM 57.2 °F 30.2 °F 36% 29.89 in 10.0 mi NE 5.8 mph - N/A   Clear
12:36 AM 57.2 °F 28.4 °F 33% 29.89 in 10.0 mi NE 6.9 mph - N/A   Clear
12:56 AM 55.4 °F 30.2 °F 38% 29.89 in 10.0 mi NE 5.8 mph - N/A   Clear
1:16 AM 55.4 °F 30.2 °F 38% 29.90 in 10.0 mi NE 6.9 mph - N/A   Clear
1:36 AM 53.6 °F 30.2 °F 41% 29.90 in 10.0 mi NNE 6.9 mph - N/A   Clear
1:56 AM 53.6 °F 30.2 °F 41% 29.90 in 10.0 mi NE 8.1 mph - N/A   Clear
2:16 AM 51.8 °F 30.2 °F 44% 29.90 in 10.0 mi NE 8.1 mph - N/A   Clear
2:36 AM 51.8 °F 30.2 °F 44% 29.90 in 10.0 mi NE 8.1 mph - N/A   Clear
2:56 AM 51.8 °F 30.2 °F 44% 29.90 in 10.0 mi NE 8.1 mph - N/A   Scattered Clouds
3:16 AM 51.8 °F 30.2 °F 44% 29.90 in 10.0 mi NE 8.1 mph - N/A   Mostly Cloudy
3:36 AM 50.0 °F 30.2 °F 47% 29.90 in 10.0 mi NE 6.9 mph - N/A   Mostly Cloudy
3:56 AM 50.0 °F 30.2 °F 47% 29.91 in 10.0 mi NE 6.9 mph - N/A   Mostly Cloudy
4:16 AM 48.2 °F 30.2 °F 50% 29.91 in 10.0 mi NE 9.2 mph - N/A   Scattered Clouds
4:36 AM 48.2 °F 30.2 °F 50% 29.91 in 10.0 mi NE 9.2 mph - N/A   Scattered Clouds
4:56 AM 48.2 °F 30.2 °F 50% 29.91 in 10.0 mi NE 10.4 mph - N/A   Partly Cloudy
5:16 AM 48.2 °F 30.2 °F 50% 29.91 in 10.0 mi NE 8.1 mph - N/A   Clear
5:36 AM 48.2 °F 30.2 °F 50% 29.91 in 10.0 mi NE 9.2 mph - N/A   Clear
5:56 AM 48.2 °F 30.2 °F 50% 29.91 in 10.0 mi ENE 9.2 mph - N/A   Clear
6:16 AM 50.0 °F 30.2 °F 47% 29.91 in 10.0 mi NE 8.1 mph - N/A   Clear
6:36 AM 51.8 °F 30.2 °F 44% 29.91 in 10.0 mi NE 10.4 mph - N/A   Clear
6:56 AM 53.6 °F 32.0 °F 44% 29.91 in 10.0 mi NE 9.2 mph - N/A   Clear
7:16 AM 53.6 °F 32.0 °F 44% 29.91 in 10.0 mi ENE 9.2 mph - N/A   Clear
7:36 AM 55.4 °F 32.0 °F 41% 29.91 in 10.0 mi ENE 9.2 mph - N/A   Clear
7:56 AM 57.2 °F 32.0 °F 38% 29.91 in 10.0 mi NE 10.4 mph - N/A   Clear
8:16 AM 57.2 °F 32.0 °F 38% 29.91 in 10.0 mi NE 10.4 mph - N/A   Clear
8:36 AM 59.0 °F 32.0 °F 36% 29.91 in 10.0 mi NE 8.1 mph - N/A   Clear
8:56 AM 60.8 °F 33.8 °F 36% 29.91 in 10.0 mi NE 8.1 mph - N/A   Clear
9:16 AM 60.8 °F 32.0 °F 34% 29.91 in 10.0 mi NE 6.9 mph - N/A   Clear
9:36 AM 62.6 °F 32.0 °F 32% 29.91 in 10.0 mi NE 10.4 mph - N/A   Clear
9:56 AM 62.6 °F 33.8 °F 34% 29.91 in 10.0 mi NE 8.1 mph - N/A   Clear
10:16 AM 64.4 °F 33.8 °F 32% 29.90 in 10.0 mi NE 8.1 mph - N/A   Clear
10:36 AM 64.4 °F 33.8 °F 32% 29.90 in 10.0 mi NE 11.5 mph - N/A   Clear
10:56 AM 66.2 °F 33.8 °F 30% 29.90 in 10.0 mi NE 10.4 mph - N/A   Clear
11:16 AM 66.2 °F 33.8 °F 30% 29.89 in 10.0 mi NNE 11.5 mph - N/A   Clear
11:36 AM 69.8 °F 33.8 °F 27% 29.89 in 10.0 mi ENE 6.9 mph - N/A   Clear
11:56 AM 69.8 °F 30.2 °F 23% 29.88 in 10.0 mi NE 12.7 mph 16.1 mph N/A   Clear
12:16 PM 69.8 °F 32.0 °F 25% 29.88 in 10.0 mi ENE 10.4 mph - N/A   Clear
12:36 PM 69.8 °F 30.2 °F 23% 29.88 in 10.0 mi NE 10.4 mph 17.3 mph N/A   Clear
12:56 PM 71.6 °F 30.2 °F 22% 29.87 in 10.0 mi East 5.8 mph - N/A   Clear
1:16 PM 71.6 °F 32.0 °F 23% 29.87 in 10.0 mi East 6.9 mph - N/A   Clear
1:36 PM 71.6 °F 30.2 °F 22% 29.87 in 10.0 mi East 3.5 mph - N/A   Clear
1:56 PM 73.4 °F 32.0 °F 22% 29.86 in 10.0 mi NE 9.2 mph - N/A   Clear
2:16 PM 73.4 °F 32.0 °F 22% 29.86 in 10.0 mi Calm Calm - N/A   Clear
2:36 PM 71.6 °F 30.2 °F 22% 29.86 in 10.0 mi NNW 5.8 mph - N/A   Clear
3:16 PM 73.4 °F 30.2 °F 20% 29.86 in 10.0 mi North 5.8 mph - N/A   Clear
3:36 PM 73.4 °F 32.0 °F 22% 29.85 in 10.0 mi NW 5.8 mph - N/A   Clear
3:56 PM 73.4 °F 30.2 °F 20% 29.85 in 10.0 mi NNW 4.6 mph - N/A   Clear
4:16 PM 73.4 °F 30.2 °F 20% 29.85 in 10.0 mi North 4.6 mph - N/A   Clear
4:36 PM 73.4 °F 30.2 °F 20% 29.84 in 10.0 mi West 3.5 mph - N/A   Clear
4:56 PM 73.4 °F 30.2 °F 20% 29.84 in 10.0 mi ENE 3.5 mph - N/A   Clear
5:16 PM 73.4 °F 30.2 °F 20% 29.84 in 10.0 mi North 6.9 mph - N/A   Clear
5:36 PM 73.4 °F 30.2 °F 20% 29.83 in 10.0 mi East 3.5 mph - N/A   Clear
5:56 PM 73.4 °F 30.2 °F 20% 29.83 in 10.0 mi North 8.1 mph - N/A   Clear
6:16 PM 73.4 °F 30.2 °F 20% 29.83 in 10.0 mi NNE 8.1 mph - N/A   Clear
6:36 PM 73.4 °F 30.2 °F 20% 29.83 in 10.0 mi NNE 10.4 mph - N/A   Clear
6:56 PM 73.4 °F 28.4 °F 19% 29.83 in 10.0 mi North 8.1 mph - N/A   Clear
7:16 PM 73.4 °F 30.2 °F 20% 29.83 in 10.0 mi North 3.5 mph - N/A   Clear
7:36 PM 73.4 °F 28.4 °F 19% 29.83 in 10.0 mi NNE 10.4 mph - N/A   Clear
7:56 PM 73.4 °F 28.4 °F 19% 29.83 in 10.0 mi NNE 4.6 mph - N/A   Clear
8:16 PM 73.4 °F 28.4 °F 19% 29.83 in 10.0 mi NE 5.8 mph - N/A   Clear
8:36 PM 73.4 °F 28.4 °F 19% 29.83 in 10.0 mi NNE 5.8 mph - N/A   Clear
8:56 PM 73.4 °F 28.4 °F 19% 29.83 in 10.0 mi ENE 9.2 mph - N/A   Clear
9:16 PM 71.6 °F 28.4 °F 20% 29.83 in 10.0 mi ENE 5.8 mph - N/A   Clear
9:36 PM 71.6 °F 28.4 °F 20% 29.84 in 10.0 mi ENE 6.9 mph - N/A   Clear
9:56 PM 71.6 °F 28.4 °F 20% 29.84 in 10.0 mi ENE 5.8 mph - N/A   Clear
10:16 PM 69.8 °F 28.4 °F 21% 29.84 in 10.0 mi ENE 4.6 mph - N/A   Clear
10:36 PM 69.8 °F 28.4 °F 21% 29.85 in 10.0 mi ENE 4.6 mph - N/A   Clear
10:56 PM 66.2 °F 28.4 °F 24% 29.85 in 10.0 mi ENE 3.5 mph - N/A   Clear
11:16 PM 62.6 °F 35.6 °F 37% 29.85 in 10.0 mi NE 3.5 mph - N/A   Clear
11:36 PM 62.6 °F 33.8 °F 34% 29.86 in 10.0 mi ENE 6.9 mph - N/A   Clear
11:56 PM 62.6 °F 30.2 °F 30% 29.86 in 10.0 mi ENE 4.6 mph - N/A   Scattered Clouds